STARLINK-11178, 62465

Orbit data source: Space-Track

STARLINK-11178, 62465 is a payload satellite owned by SpaceX/Seattle (US) in LEO that was launched on Tue, 31 Dec 2024 UTC via an FALCON 9 launch vehicle from the Air Force Eastern Test Range (AFETR). Payloads include a variety of satellites, spacecraft, and rockets equipped with specific instruments for various scientific and technological missions. These include communications satellites like Starlink; space stations such as the ISS; scientific satellites like the Hubble; Earth observation satellites from companies like Planet Labs, Umbra, and HawkEye 360; GPS; miniature CubeSats for education and research; and military/defense satellites.

Loading next visibility...
STARLINK-11178 details
Identifier
62465, 2024-254D
Orbit
LEO
Last TLE update21 hours ago
Origin
Flag of USSpaceX/Seattle (US)
ManufacturerSpaceX/Seattle
MissionOperational spacecraft
Bus & MotorSTARLINK V2M, Unknown motor
Mass730 kg wet, ~700 kg dry
Launch date (UTC)
2024-12-31 (4 weeks ago)
Launch vehicle
FALCON 9
Launch site
Air Force Eastern Test Range (AFETR)
Object type
Payload
Rocket body
Debris
Shape & HBRUnknown
Radar Cross SectionLarge (>1 m²)

Expand to show TLE details & history

TLE from 21 hours ago
0 STARLINK-11178
1 62465U 24254D   25024.91667824  .00026613  00000-0  15533-3 0  9994
2 62465  42.9994 169.1378 0001389 273.3433 216.4015 15.77853734  4961
Epoch: 2025-01-24T22:00Z
Definitive object data (Epoch: 2025-01-24T22:00:00.999Z)
Latitude31.75417°
Longitude-146.63823°
Altitude338.117 km
Speed7.71 km/s
True Right ascension20h 31m 21s
True Declination31° 35' 27"
Sunlit
Object was in daylight at TLE epoch
Visualization TLE readout
Latitude39.00074°
Longitude129.04402°
Altitude339.392 km
Speed7.71 km/s
Apparent Right ascension11h 46m 09s
Apparent Declination1° 10' 03"
Sunlit
Object is in daylight
Visualization observer readout
Local Sidereal Time20:21:04
Azimuth298.13° NW
Elevation-27.818°
Doppler factor1
Orbital elements
Apogee altitude339.443 km
Perigee altitude337.577 km
Semi-major axis6,716.647 km
Eccentricity0.0001389
Inclination42.9994°
RAAN169.1378°
Arg. of periapsis273.3433°
True anomaly216.39206°
Mean anomaly216.4015°
Eccentric anomaly216.39678°
Mean motion3.94289 °/min
BSTAR0.00015533
Orbital period91.3 mins
Loading maneuver chart data...
Loading historical data...
Loading historical data...
Loading historical data...
Loading historical data...
Loading historical data...
Loading historical data...
Loading historical data...

STARLINK-11178 Visibility forecast

Observer location: undefined°, undefined

Span
Click to sort rows by Start time (UTC) header in descending order
Start Az.
Max El. time (UTC)
Max El. Az.
Max El.
End time (UTC)
End Az.
4 mins2025-01-26 16:24:12.140Z297.019° NW2025-01-26 16:26:12.140Z58° ENE38.874°2025-01-26 16:28:12.140Z94.704° ESE
|